Wind_Speed
26 27 27 30 34 38 48 40 29 39 37 34 37 40 47 42 43 36 30 25 22 39
24 26 24 24 26 34 37 43 29 35 31 29 35 41 44 42 41 38 42 34 26 40
25 25 25 23 19 21 25 27 32 32 29 28 34 40 43 36 41 38 34 35 32 37
27 23 25 23 20 19 22 27 32 34 31 30 33 34 41 41 40 40 33 35 34 36
26 24 23 22 21 16 16 24 28 34 32 32 34 35 37 39 36 35 32 29 32 33
26 23 24 19 16 17 15 26 29 28 29 28 29 36 39 42 39 36 30 23 31 27
29 26 24 21 16 16 14 14 21 17 23 21 28 31 36 41 40 33 33 26 26 26
29 27 25 24 18 11 14 14 10 20 20 23 23 24 28 34 33 34 28 32 22 23
30 30 29 27 26 20 13 14 10 3 15 13 23 23 23 25 25 25 23 26 27 24
32 31 31 30 27 26 23 15 12 8 5 9 15 25 25 25 28 26 23 29 32 27
33 33 32 32 32 30 28 26 22 17 14 5 2 20 23 25 29 31 28 27 23 24
30 31 32 34 36 36 34 33 32 28 24 21 16 10 5 19 24 23 24 22 20 20
27 29 31 32 33 34 36 37 35 35 34 32 27 21 16 6 14 20 17 14 13 15
27 28 28 29 31 32 34 35 37 38 38 38 36 32 26 22 15 15 14 13 9 5
Wind_Direction
321 310 297 285 276 270 249 248 248 231 232 231 233 235 222 230 221 208 223 227 261 239
332 327 309 293 285 272 261 249 250 243 243 240 238 236 228 229 223 227 233 250 269 240
341 334 322 306 293 275 259 250 245 249 248 240 236 231 224 236 235 236 239 226 212 221
343 338 327 306 291 254 248 246 237 235 238 238 232 225 232 232 227 223 219 226 229 230
340 346 339 315 311 284 249 248 243 240 236 230 225 227 218 210 228 224 213 239 223 250
351 343 349 339 326 311 279 246 249 246 236 233 233 218 222 230 217 208 220 252 267 216
6 3 356 345 339 351 318 283 257 240 239 230 237 228 220 215 214 232 239 260 214 239
17 15 13 4 357 355 336 332 297 249 232 229 199 214 216 225 223 226 240 238 221 226
22 22 19 17 15 16 21 355 325 2 198 208 196 209 221 225 220 225 215 240 243 236
31 29 29 30 29 25 30 23 6 16 268 231 228 208 213 218 219 214 212 213 216 222
39 37 36 39 40 39 37 43 45 40 33 0 111 186 183 198 206 211 206 212 219 229
40 45 43 45 47 49 49 49 53 55 53 46 33 27 133 169 178 190 198 200 209 222
44 46 51 50 49 50 52 55 56 55 56 57 55 49 43 66 123 145 145 162 190 215
46 49 48 51 54 54 56 56 55 56 56 55 54 56 57 57 55 68 85 88 111 120
Height
1400 1394 1389 1386 1384 1380 1376 1383 1390 1389 1391 1391 1393 1400 1406 1414 1418 1420 1430 1430 1432 1442
1393 1388 1384 1380 1377 1371 1369 1372 1381 1382 1382 1381 1388 1395 1399 1406 1409 1413 1416 1422 1418 1435
1388 1383 1380 1376 1370 1366 1367 1367 1369 1370 1374 1378 1382 1387 1393 1399 1404 1407 1406 1414 1416 1426
1386 1379 1375 1372 1366 1363 1361 1365 1366 1368 1370 1371 1375 1380 1385 1390 1394 1391 1401 1410 1414 1420
1383 1377 1372 1368 1364 1360 1357 1360 1361 1361 1364 1364 1368 1373 1378 1381 1387 1392 1398 1407 1410 1412
1381 1376 1371 1366 1361 1357 1356 1356 1357 1356 1356 1360 1363 1367 1372 1377 1380 1384 1393 1399 1403 1397
1383 1376 1371 1365 1360 1357 1354 1354 1354 1352 1351 1357 1360 1364 1365 1371 1377 1382 1385 1385 1392 1399
1386 1380 1373 1368 1360 1355 1353 1353 1351 1351 1351 1353 1350 1361 1365 1368 1372 1377 1381 1379 1380 1389
1389 1382 1376 1370 1362 1356 1352 1350 1355 1350 1347 1351 1352 1357 1361 1365 1369 1372 1373 1377 1382 1386
1393 1386 1382 1374 1367 1363 1357 1355 1350 1350 1350 1347 1352 1352 1358 1361 1366 1370 1372 1377 1380 1383
1398 1394 1388 1381 1377 1371 1366 1360 1355 1352 1352 1355 1347 1351 1353 1359 1361 1366 1369 1372 1375 1377
1407 1401 1396 1390 1386 1381 1375 1370 1364 1362 1359 1355 1359 1352 1353 1357 1357 1358 1364 1367 1370 1373
1414 1408 1402 1398 1393 1389 1384 1380 1376 1371 1367 1364 1362 1361 1364 1363 1357 1357 1359 1363 1365 1369
1421 1415 1410 1406 1401 1398 1394 1389 1384 1380 1377 1376 1373 1372 1368 1364 1365 1364 1360 1363 1363 1365